This is the latest recevied weather packets stored in our database for station/object KE4EST. If no packets are shown the sender has not sent any weather packets the latest 10 day(s).
| Time | Temp. | Humidity | Pressure | Rain* | Wind** | Luminosity | Snow |
|---|---|---|---|---|---|---|---|
| 1778087489 | 18.89° C | 97% | 1015.2 hPa | 0 mm | - | 160 W/m² | - |
| 1778087186 | 18.89° C | 98% | 1015.2 hPa | 0 mm | - | 225 W/m² | - |
| 1778086883 | 18.33° C | 98% | 1015.1 hPa | 0 mm | - | 367 W/m² | - |
| 1778086581 | 18.33° C | 99% | 1015.1 hPa | 0 mm | - | 296 W/m² | - |
| 1778086277 | 17.78° C | 99% | 1015 hPa | 0 mm | - | 224 W/m² | - |
| 1778085975 | 17.78° C | 99% | 1015.2 hPa | 0 mm | - | 101 W/m² | - |
| 1778085672 | 17.22° C | 99% | 1015.3 hPa | 0 mm | - | 75 W/m² | - |
| 1778085368 | 17.78° C | 99% | 1015.2 hPa | 0 mm | - | 96 W/m² | - |
| 1778085063 | 17.78° C | 99% | 1015 hPa | 0 mm | - | 156 W/m² | - |
| 1778084760 | 17.22° C | 99% | 1014.8 hPa | 0 mm | - | 118 W/m² | - |
| 1778084451 | 17.22° C | 99% | 1014.6 hPa | 0 mm | - | 137 W/m² | - |
| 1778084148 | 17.22° C | 99% | 1014.8 hPa | 0 mm | - | 173 W/m² | - |
| 1778083840 | 17.22° C | 99% | 1014.9 hPa | 0 mm | - | 165 W/m² | - |
| 1778083538 | 17.22° C | 99% | 1015.3 hPa | 0 mm | - | 201 W/m² | - |
| 1778083234 | 17.22° C | 99% | 1015.4 hPa | 1.27 mm | - | 222 W/m² | - |
| 1778082933 | 16.67° C | 99% | 1016.2 hPa | 4.32 mm | - | 209 W/m² | - |
| 1778081830 | 16.11° C | 99% | 1017.1 hPa | 3.05 mm | - | 16 W/m² | - |
| 1778081527 | 16.11° C | 99% | 1016 hPa | 8.89 mm | - | 88 W/m² | - |
| 1778081224 | 16.11° C | 99% | 1016.3 hPa | 28.7 mm | - | 85 W/m² | - |
| 1778080922 | 16.11° C | 99% | 1016.3 hPa | 23.88 mm | - | 48 W/m² | - |
| 1778080621 | 16.11° C | 99% | 1017.6 hPa | 4.32 mm | - | 19 W/m² | - |
| 1778080316 | 15.56° C | 99% | 1017.1 hPa | 4.32 mm | - | 69 W/m² | - |
| 1778080013 | 15.56° C | 99% | 1016.7 hPa | 10.67 mm | - | 39 W/m² | - |
| 1778079710 | 15.56° C | 99% | 1016.8 hPa | 24.64 mm | - | 17 W/m² | - |
| 1778079407 | 15.56° C | 99% | 1016.7 hPa | 30.73 mm | - | 20 W/m² | - |
* Rain latest hour (hover to see other rain measurements)
** Current wind speed in m/s (hover to see current wind gust speed)